Location: Poughquag
(41.6090°N, 73.6820°W)
Time: 00:49:11
(UTC-05:00)

A-11 Canister half - Visible Passes

Search period start: 29 November 2023 00:00
Search period end: 09 December 2023 00:00
Orbit: 1514 x 1685 km, 47.2° (Epoch: 28 November)

Date Brightness Start Highest point End Pass type
(mag) Time Alt. Az. Time Alt. Az. Time Alt. Az.
29 Nov 11.1 01:19:07 16° ENE 01:19:07 16° ENE 01:20:36 10° ENE visible
29 Nov 9.2 03:17:19 65° NNE 03:17:19 65° NNE 03:26:02 10° ENE visible
29 Nov 9.3 05:15:31 26° WNW 05:21:56 66° N 05:32:05 10° E visible
30 Nov 11.3 00:57:29 10° ENE 00:57:29 10° ENE 00:57:34 10° ENE visible
30 Nov 9.6 02:55:41 52° NE 02:55:41 52° NE 03:02:59 10° ENE visible
30 Nov 9.3 04:53:52 34° WNW 04:58:52 65° N 05:09:01 10° E visible
01 Dec 10.0 02:34:01 41° ENE 02:34:01 41° ENE 02:39:57 10° ENE visible
01 Dec 9.2 04:32:12 43° WNW 04:35:49 65° N 04:45:57 10° E visible
01 Dec 9.3 06:31:22 10° WNW 06:41:29 84° SSW 06:51:42 10° ESE visible
02 Dec 10.3 02:12:22 31° ENE 02:12:22 31° ENE 02:16:55 10° ENE visible
02 Dec 9.2 04:10:33 54° NW 04:12:45 64° N 04:22:52 10° E visible
02 Dec 9.2 06:08:45 11° WNW 06:18:29 87° SSW 06:28:42 10° ESE visible
03 Dec 10.7 01:50:42 24° ENE 01:50:42 24° ENE 01:53:53 10° ENE visible
03 Dec 9.1 03:48:54 62° NNW 03:49:42 64° N 03:59:47 10° E visible
03 Dec 9.2 05:47:06 17° WNW 05:55:28 90° SW 06:05:43 10° ESE visible
04 Dec 11.0 01:29:03 17° ENE 01:29:03 17° ENE 01:30:51 10° ENE visible
04 Dec 9.2 03:27:15 63° NNE 03:27:15 63° NNE 03:36:43 10° E visible
04 Dec 9.1 05:25:27 23° WNW 05:32:28 88° NNE 05:42:42 10° ESE visible
05 Dec 11.3 01:07:24 12° ENE 01:07:24 12° ENE 01:07:49 10° ENE visible
05 Dec 9.5 03:05:36 54° NE 03:05:36 54° NE 03:13:38 10° E visible
05 Dec 9.1 05:03:48 31° WNW 05:09:26 85° NNE 05:19:41 10° ESE visible
06 Dec 9.9 02:43:59 44° ENE 02:43:59 44° ENE 02:50:34 10° E visible
06 Dec 9.1 04:42:11 41° WNW 04:46:25 83° NNE 04:56:39 10° ESE visible
07 Dec 10.2 02:22:23 34° ENE 02:22:23 34° ENE 02:27:29 10° ENE visible
07 Dec 9.1 04:20:34 54° NW 04:23:24 81° NNE 04:33:36 10° ESE visible
07 Dec 9.6 06:18:47 10° WNW 06:28:08 48° SW 06:37:41 10° SSE visible
08 Dec 10.6 02:00:48 25° ENE 02:00:48 25° ENE 02:04:25 10° ENE visible
08 Dec 9.0 03:59:00 69° NW 04:00:22 79° NNE 04:10:34 10° ESE visible
08 Dec 9.5 05:57:12 16° WNW 06:05:11 51° SW 06:14:50 10° SSE visible
